Probability
3 6 10 10 6 6 10 10 6 3 3 3 3 3 3 3 3 3 3 6 3 3 3 3 3 3 3 3 0 0 0 0 0 0 0 0 0 0 0 0 0 0 0
6 6 10 6 3 3 3 3 3 0 0 3 3 3 3 3 3 3 6 6 6 6 3 3 3 3 0 0 0 0 0 0 0 0 0 0 0 0 0 0 0 0 0
6 6 6 3 3 3 6 3 3 3 0 0 3 3 3 3 3 3 3 3 6 3 3 0 0 0 0 0 0 0 0 0 0 0 0 0 0 0 0 0 0 0 0
3 3 3 6 6 0 0 0 3 3 3 3 3 3 3 3 3 0 0 0 0 0 0 0 3 0 0 0 0 0 0 0 0 0 0 0 0 0 0 0 0 0 0
3 6 3 3 0 0 0 0 0 3 3 3 3 3 0 0 0 3 0 0 0 0 0 0 0 0 0 0 0 0 0 0 0 0 0 0 0 0 0 0 0 0 0
3 3 3 0 0 0 0 0 0 0 0 0 3 0 0 3 0 0 0 0 0 0 0 0 0 0 0 0 0 0 0 0 0 0 0 0 0 0 0 0 0 0 0
3 3 3 0 0 0 0 3 3 0 0 3 0 0 0 0 0 0 0 0 0 0 0 0 0 0 0 0 0 0 0 0 0 0 0 0 0 0 0 0 0 0 0
3 3 3 0 0 3 3 3 3 3 3 3 3 0 0 0 0 0 0 0 0 0 0 0 0 0 0 0 0 0 0 0 0 0 0 0 0 0 0 0 0 0 0
0 0 0 0 0 3 3 3 3 3 3 3 3 0 0 0 0 0 0 0 0 0 0 0 0 0 0 0 0 0 0 0 0 0 0 0 0 0 0 0 0 0 0
3 3 0 0 0 0 3 3 3 3 3 3 0 0 0 0 0 0 0 0 0 0 0 0 0 0 0 0 0 0 0 0 0 0 0 0 0 0 0 0 0 0 0
3 3 0 0 3 3 3 3 3 3 0 0 0 0 0 0 0 0 0 0 0 0 0 0 0 0 0 0 0 0 0 0 0 0 0 0 0 0 0 0 0 0 0
0 0 0 0 3 3 3 3 3 0 0 0 0 0 0 0 0 0 0 0 0 0 0 0 0 0 0 0 0 0 0 0 0 0 0 0 0 0 0 0 0 0 0
0 0 0 0 0 3 3 3 0 0 0 0 0 0 0 0 0 0 0 0 0 0 0 0 0 0 0 0 0 0 0 0 0 0 0 0 0 0 0 0 0 0 0
0 0 0 0 0 0 0 0 0 0 0 0 0 0 0 0 0 0 0 0 0 0 0 0 0 0 0 0 0 0 0 0 0 0 0 0 0 0 0 0 0 0 0
0 0 0 0 0 0 0 0 0 0 0 0 0 0 0 0 0 0 0 0 0 0 0 0 0 0 0 0 0 0 0 0 0 0 0 0 0 0 0 0 0 0 0
0 0 0 0 0 0 0 0 0 0 0 0 0 0 0 0 0 0 0 0 0 0 0 0 0 0 0 0 0 0 0 0 0 0 0 0 0 0 0 0 0 0 0
0 0 0 0 0 0 0 0 0 0 0 0 0 0 0 0 0 0 0 0 0 0 0 0 0 0 0 0 0 0 0 0 0 0 0 0 0 0 0 0 0 0 0
0 0 0 0 0 0 0 0 0 0 0 0 0 0 0 0 0 0 0 0 0 0 0 0 0 0 0 0 0 0 0 0 0 0 0 0 0 0 0 0 0 0 0
0 0 0 0 0 0 0 0 0 0 0 0 0 0 0 0 0 0 0 0 0 0 0 0 0 0 0 0 0 0 0 0 0 0 0 0 0 0 0 0 0 0 0
0 0 0 0 0 0 0 0 0 0 0 0 0 0 0 0 0 0 0 0 0 0 0 0 0 0 0 0 0 0 0 0 0 0 0 0 0 0 0 0 0 0 0
0 0 0 0 0 0 0 0 0 0 0 0 0 0 0 0 0 0 0 0 0 0 0 0 0 0 0 0 0 0 0 0 0 0 0 0 0 0 0 0 0 0 0
0 0 0 0 0 0 0 0 0 0 0 0 0 0 0 0 0 0 0 0 0 0 0 0 0 0 0 0 0 0 0 0 0 0 0 0 0 0 0 0 0 0 0
0 0 0 0 0 0 0 0 0 0 0 0 0 0 0 0 0 0 0 0 0 0 0 0 0 0 0 0 0 0 0 0 0 0 0 0 0 0 0 0 0 0 0
0 0 0 0 0 0 0 0 0 0 0 0 0 0 0 0 0 0 0 0 0 0 0 0 0 0 0 0 0 0 0 0 0 0 0 0 0 0 0 0 0 0 0
0 0 0 0 0 0 0 0 0 0 0 0 0 0 0 0 0 0 0 0 0 0 0 0 0 0 0 0 0 0 0 0 0 0 0 0 0 0 0 0 0 0 0
0 0 0 0 0 0 0 0 0 0 0 0 0 0 0 0 0 0 0 0 0 0 0 0 0 0 0 0 0 0 0 0 0 0 0 0 0 0 0 0 0 0 0
Height
5826 5826 5826 5827 5829 5831 5833 5836 5838 5841 5844 5846 5849 5851 5853 5855 5857 5859 5860 5862 5863 5864 5865 5866 5867 5868 5869 5869 5869 5870 5870 5870 5870 5869 5869 5868 5868 5868 5868 5867 5867 5866 5865
5823 5823 5824 5824 5826 5828 5830 5832 5835 5837 5840 5842 5845 5847 5849 5851 5853 5854 5856 5857 5859 5860 5860 5861 5862 5863 5864 5864 5864 5864 5865 5864 5864 5864 5863 5863 5862 5862 5861 5861 5860 5859 5858
5822 5822 5822 5822 5824 5826 5827 5829 5831 5834 5836 5839 5841 5843 5845 5846 5848 5850 5851 5852 5853 5854 5855 5856 5857 5857 5858 5858 5859 5859 5859 5859 5858 5858 5857 5857 5856 5855 5854 5854 5853 5852 5851
5821 5820 5820 5821 5821 5823 5825 5826 5828 5830 5832 5835 5837 5839 5840 5842 5843 5845 5846 5847 5848 5849 5850 5850 5851 5851 5852 5852 5852 5852 5852 5852 5851 5851 5850 5850 5849 5848 5847 5846 5845 5844 5843
5819 5819 5819 5820 5820 5821 5822 5824 5825 5827 5829 5831 5832 5834 5836 5837 5838 5840 5841 5842 5843 5843 5844 5844 5845 5845 5845 5845 5845 5845 5845 5844 5844 5844 5843 5842 5841 5840 5839 5838 5837 5835 5834
5816 5816 5817 5817 5818 5818 5820 5821 5822 5823 5825 5827 5828 5829 5831 5832 5833 5834 5836 5836 5837 5837 5838 5838 5838 5838 5838 5838 5838 5837 5837 5836 5836 5835 5834 5833 5831 5830 5829 5828 5827 5825 5824
5814 5814 5814 5815 5815 5816 5817 5817 5818 5820 5821 5823 5824 5825 5826 5827 5828 5829 5830 5830 5831 5831 5831 5831 5831 5831 5831 5830 5829 5829 5828 5827 5827 5826 5825 5823 5822 5820 5819 5817 5815 5814 5812
5811 5811 5811 5811 5812 5812 5813 5813 5814 5815 5817 5818 5819 5820 5821 5821 5822 5823 5823 5824 5824 5824 5824 5824 5823 5823 5822 5822 5821 5820 5819 5818 5817 5816 5815 5813 5811 5809 5807 5806 5804 5802 5800
5807 5807 5807 5807 5807 5808 5809 5809 5810 5811 5812 5813 5814 5815 5815 5816 5816 5817 5817 5817 5816 5816 5816 5816 5815 5814 5814 5813 5812 5811 5809 5808 5806 5805 5803 5801 5799 5797 5795 5793 5791 5789 5787
5803 5803 5803 5803 5803 5804 5805 5805 5806 5806 5807 5808 5809 5809 5809 5810 5810 5810 5809 5809 5808 5808 5808 5807 5806 5805 5804 5803 5802 5801 5799 5797 5795 5793 5791 5789 5786 5784 5782 5779 5777 5774 5771
5798 5799 5799 5799 5799 5800 5800 5801 5801 5801 5802 5803 5803 5803 5803 5803 5803 5802 5802 5802 5800 5799 5799 5798 5797 5796 5794 5793 5791 5790 5788 5786 5783 5781 5778 5776 5773 5770 5767 5765 5762 5759 5756
5793 5793 5794 5794 5794 5795 5795 5795 5796 5796 5797 5797 5797 5797 5797 5796 5796 5795 5794 5794 5792 5791 5790 5789 5788 5786 5785 5783 5781 5779 5776 5774 5771 5769 5766 5763 5759 5756 5753 5749 5746 5742 5739
5787 5788 5789 5789 5789 5790 5790 5790 5790 5790 5791 5790 5790 5790 5790 5789 5788 5787 5786 5785 5783 5782 5781 5780 5778 5776 5774 5772 5770 5767 5764 5762 5759 5755 5752 5749 5745 5741 5738 5734 5730 5726 5722
5781 5782 5782 5783 5783 5784 5784 5784 5784 5784 5784 5783 5783 5782 5782 5781 5780 5779 5778 5776 5775 5774 5772 5770 5768 5766 5763 5761 5758 5755 5752 5749 5745 5741 5738 5734 5730 5726 5722 5718 5714 5710 5705
5775 5775 5776 5776 5777 5777 5777 5778 5778 5778 5777 5776 5775 5775 5774 5773 5772 5771 5769 5768 5766 5764 5762 5759 5756 5754 5751 5748 5745 5742 5738 5735 5731 5727 5723 5719 5715 5710 5706 5701 5697 5692 5688
5769 5769 5769 5770 5770 5770 5771 5771 5770 5770 5770 5769 5768 5767 5766 5765 5764 5762 5760 5758 5756 5753 5750 5747 5744 5741 5738 5735 5731 5728 5724 5720 5716 5712 5707 5703 5699 5694 5689 5684 5679 5675 5670
5762 5762 5763 5763 5763 5764 5763 5763 5763 5763 5762 5761 5761 5759 5758 5756 5754 5752 5749 5747 5744 5742 5739 5736 5732 5729 5725 5722 5718 5714 5710 5706 5701 5697 5692 5687 5683 5678 5673 5668 5663 5658 5653
5756 5756 5757 5757 5757 5757 5757 5756 5756 5755 5754 5753 5751 5750 5748 5746 5744 5742 5739 5736 5733 5730 5727 5724 5720 5717 5713 5709 5704 5700 5696 5691 5686 5682 5677 5672 5667 5663 5658 5653 5648 5643 5638
5751 5751 5751 5751 5751 5751 5750 5750 5749 5748 5746 5745 5743 5742 5740 5737 5734 5732 5729 5726 5723 5719 5716 5712 5708 5704 5700 5695 5691 5686 5681 5677 5672 5667 5662 5658 5653 5648 5643 5639 5634 5629 5624
5746 5746 5745 5745 5745 5744 5743 5743 5742 5740 5739 5737 5735 5733 5730 5728 5725 5722 5719 5715 5712 5708 5704 5700 5696 5692 5687 5683 5678 5673 5668 5664 5659 5654 5649 5645 5640 5636 5631 5627 5622 5618 5613
5740 5740 5740 5739 5738 5737 5737 5736 5734 5733 5731 5728 5726 5724 5721 5718 5715 5711 5708 5704 5701 5697 5693 5688 5684 5680 5675 5670 5666 5661 5656 5652 5647 5643 5638 5634 5629 5625 5621 5616 5612 5608 5603
5735 5734 5734 5733 5732 5731 5730 5729 5727 5725 5723 5720 5717 5714 5711 5708 5705 5701 5697 5694 5690 5685 5681 5677 5673 5668 5664 5660 5655 5651 5646 5642 5637 5633 5628 5624 5620 5615 5611 5607 5603 5599 5595
5729 5729 5728 5727 5726 5724 5723 5721 5719 5716 5714 5711 5708 5705 5702 5698 5695 5691 5687 5683 5679 5675 5671 5667 5662 5658 5654 5650 5646 5641 5637 5633 5628 5624 5620 5615 5611 5607 5604 5600 5596 5592 5588
5724 5723 5722 5720 5719 5717 5715 5713 5711 5708 5705 5702 5699 5696 5692 5688 5685 5681 5677 5673 5669 5665 5661 5657 5653 5649 5645 5641 5637 5633 5629 5625 5621 5616 5612 5608 5604 5600 5597 5593 5589 5586 5582
5719 5717 5716 5714 5712 5710 5708 5705 5702 5699 5696 5693 5690 5686 5683 5679 5675 5671 5668 5664 5660 5656 5652 5648 5644 5641 5637 5634 5630 5626 5622 5618 5614 5610 5606 5602 5598 5595 5591 5587 5584 5580 5577
5713 5711 5709 5707 5705 5702 5700 5697 5694 5691 5688 5684 5681 5678 5674 5670 5667 5663 5659 5655 5652 5648 5644 5640 5637 5633 5630 5627 5623 5620 5616 5613 5609 5605 5601 5597 5593 5589 5586 5582 5579 5575 5572
Wind_Speed
9 10 11 13 15 16 16 18 20 21 22 22 22 22 22 21 20 20 20 20 20 20 20 20 20 20 20 20 20 20 21 21 21 22 22 22 22 23 23 24 24 25 25
9 10 10 10 12 13 14 17 19 21 22 22 22 23 23 22 22 22 22 22 22 22 22 22 22 22 22 22 22 22 23 23 24 25 25 25 26 26 26 27 27 28 29
8 8 9 9 11 12 12 15 18 19 21 22 22 23 23 23 23 23 23 23 23 24 23 23 23 24 24 24 24 25 25 25 26 26 27 28 28 29 29 30 30 31 32
9 8 9 10 11 12 12 14 17 18 19 20 21 22 23 23 23 22 22 22 22 23 23 24 24 25 25 26 26 27 27 27 27 28 29 30 30 31 31 32 32 33 34
10 9 9 10 11 13 13 14 16 18 19 19 21 22 22 23 22 22 23 23 23 23 24 24 25 26 26 27 28 29 29 29 30 30 30 31 33 33 34 34 35 36 37
11 10 11 11 11 12 13 14 15 17 18 19 21 22 21 21 21 22 23 24 24 24 25 26 26 27 28 29 31 31 31 31 32 32 33 34 35 36 37 37 38 39 40
11 11 12 12 12 12 13 14 15 17 18 18 20 20 20 20 20 22 23 24 25 26 27 28 28 29 31 31 32 32 32 33 34 35 36 36 38 39 39 40 41 41 42
12 12 13 13 13 14 14 15 16 17 18 19 19 20 21 21 22 24 26 27 28 28 29 30 31 32 33 33 33 33 34 35 36 37 38 39 41 42 43 43 44 44 45
13 14 14 14 15 14 15 15 16 17 18 18 19 20 21 22 23 25 27 28 29 29 30 30 31 32 33 34 35 36 37 38 39 40 41 42 43 44 45 46 47 48 48
15 15 15 15 14 15 15 16 17 18 19 20 21 22 23 24 25 27 27 28 29 30 31 31 32 33 35 35 37 38 40 40 41 42 43 44 45 46 47 48 49 51 52
17 17 16 16 16 16 17 18 19 20 20 21 22 23 23 24 25 26 27 28 29 31 31 32 33 34 36 38 39 40 41 41 43 44 45 47 48 49 50 51 52 53 54
18 18 17 17 18 18 19 19 20 21 21 22 23 24 24 25 26 27 28 30 31 32 33 33 34 34 36 38 39 41 42 43 44 46 48 50 51 52 53 53 55 56 57
20 19 19 19 19 20 21 21 22 23 23 24 24 25 26 27 27 28 29 30 31 32 33 34 35 37 38 40 41 42 43 45 47 49 50 52 53 53 54 55 57 58 60
20 20 20 21 21 22 23 23 23 23 24 25 26 26 26 27 28 29 30 31 32 33 35 36 38 39 40 42 43 44 46 47 49 50 52 53 55 55 56 57 58 59 60
21 21 22 22 23 24 24 24 25 26 26 26 27 27 27 28 30 31 32 33 35 36 38 39 40 42 42 43 45 46 47 49 50 51 52 53 55 56 57 58 58 59 59
22 22 22 22 23 24 25 25 26 26 26 27 28 29 29 31 32 34 35 36 37 39 41 42 42 43 43 44 45 46 48 49 50 51 52 53 54 55 56 57 57 57 57
21 21 21 22 23 24 25 26 26 27 28 29 30 31 32 33 34 35 36 37 38 39 39 40 42 43 44 45 46 47 48 49 50 51 52 53 54 54 54 53 53 54 53
20 21 22 22 22 22 23 24 25 26 27 28 29 31 32 33 34 35 36 36 38 39 40 41 43 44 45 45 46 47 48 49 50 50 50 50 50 50 50 50 49 49 48
18 19 19 20 21 22 23 25 26 27 28 29 29 31 33 34 35 36 37 38 39 40 41 42 43 44 45 46 46 47 47 47 47 47 47 46 46 45 45 44 43 42 41
18 18 20 20 21 23 24 24 26 27 29 30 31 32 33 35 36 37 38 39 40 41 42 42 43 44 44 44 44 44 44 44 43 42 42 41 41 40 39 38 37 37 36
18 20 21 21 21 22 23 24 26 28 29 30 32 33 34 35 36 37 38 38 39 40 41 41 42 42 42 41 41 41 40 39 38 38 38 37 37 36 35 34 34 33 33
18 18 20 21 22 23 24 26 27 28 30 31 32 33 34 35 36 37 38 38 39 39 39 40 39 39 38 38 37 36 35 35 35 34 34 33 32 32 31 31 30 30 30
18 19 21 22 23 24 26 27 28 29 30 32 33 34 35 36 36 37 37 37 38 38 38 37 36 35 35 34 33 32 32 31 31 31 30 30 30 29 29 28 27 27 27
18 20 21 23 24 25 26 28 29 30 31 32 33 34 35 35 35 35 36 36 36 35 34 34 33 32 32 31 30 30 29 28 28 28 27 27 27 27 26 26 25 25 25
20 21 23 24 26 27 28 29 30 31 32 33 33 34 34 34 34 33 33 33 32 32 32 32 31 29 29 28 28 27 26 26 26 26 26 25 25 25 24 24 23 23 23
23 24 25 26 27 28 29 30 31 32 32 32 32 32 32 32 32 31 31 31 31 31 30 29 28 27 26 26 25 25 25 24 24 25 25 24 24 23 23 22 22 22 21
Wind_Direction
262 257 247 237 232 227 228 226 225 224 227 230 231 231 232 234 236 241 243 244 245 245 245 249 253 256 258 260 262 264 266 269 271 272 273 274 274 276 276 277 277 277 277
269 259 244 230 226 227 228 229 229 229 230 233 234 234 235 236 238 243 246 248 250 250 250 253 256 259 260 261 262 265 267 269 271 273 274 274 274 275 276 277 277 277 277
279 264 246 234 230 231 232 228 229 232 232 234 236 236 238 241 243 247 248 249 250 252 255 258 259 261 262 262 263 266 269 270 272 273 275 276 276 276 275 276 277 277 277
277 266 252 242 237 234 235 232 230 231 235 238 240 242 245 246 247 248 249 250 252 253 256 260 261 262 263 264 266 268 269 271 272 273 274 275 276 276 276 277 278 278 278
277 265 256 247 242 238 237 238 238 238 239 242 244 245 247 248 248 248 250 252 257 260 262 263 262 264 266 266 268 270 271 272 272 273 274 275 276 277 277 277 277 277 277
271 264 261 255 250 246 244 244 243 241 242 244 247 247 249 250 251 252 255 259 262 263 265 266 267 266 268 269 270 272 272 273 273 274 275 275 277 278 279 279 279 278 278
276 266 264 262 257 252 250 248 245 243 246 249 250 250 252 253 254 255 258 261 262 265 267 268 269 270 270 270 271 273 274 274 274 275 276 277 278 279 280 280 280 280 279
275 269 266 264 259 255 254 251 247 247 249 251 253 255 255 255 255 257 259 261 263 266 268 270 271 271 271 271 273 274 275 276 276 277 278 279 279 280 280 281 281 281 281
271 269 267 265 263 258 255 251 248 248 251 252 255 258 258 258 259 263 265 265 266 268 270 271 273 274 273 272 273 276 278 278 279 280 280 281 281 281 281 281 281 282 282
267 269 267 267 264 259 258 251 251 252 252 254 257 259 261 262 264 266 268 269 269 270 272 273 274 275 275 275 276 277 279 280 280 281 282 282 282 283 283 283 283 283 283
265 265 265 266 264 261 259 256 256 256 257 260 262 263 265 267 269 270 270 271 271 272 272 274 276 277 278 277 278 279 281 281 282 282 283 283 283 284 284 285 285 285 284
263 264 265 264 262 262 262 261 261 260 262 264 264 266 267 268 270 270 271 273 274 273 275 275 277 278 279 279 280 282 282 282 282 283 283 284 284 285 285 285 285 285 285
263 263 262 262 261 260 260 261 263 265 265 267 268 271 272 273 274 275 276 277 278 278 278 278 279 281 282 282 282 283 283 284 284 284 284 285 285 285 285 285 286 286 286
261 261 261 260 259 259 260 263 266 267 269 270 273 273 275 276 277 280 281 281 281 282 282 281 281 282 283 283 283 283 285 285 286 286 286 286 286 286 286 286 287 287 287
260 262 262 260 260 260 261 266 266 266 269 272 274 275 278 280 280 281 282 284 284 283 283 283 283 283 284 285 286 287 288 288 288 288 288 288 288 288 288 288 288 288 288
261 263 263 262 262 263 264 267 266 267 269 271 275 276 278 281 284 283 283 285 285 286 286 287 288 288 288 289 290 290 290 290 290 290 290 289 289 289 290 290 290 290 290
261 262 261 261 262 266 267 268 269 270 272 274 277 279 281 283 284 285 285 286 287 289 289 290 291 292 293 292 292 292 292 292 292 292 292 292 292 292 292 292 292 293 293
263 264 264 265 267 268 269 271 273 275 279 281 281 282 284 285 287 288 288 289 291 292 293 293 294 294 295 295 294 294 294 294 294 294 294 294 294 295 295 295 295 295 295
263 264 267 267 267 269 272 275 277 279 282 284 285 286 287 289 290 290 292 294 295 295 296 296 296 297 297 297 297 297 297 297 298 298 298 298 298 298 298 297 297 298 297
264 267 271 271 272 274 276 279 281 282 285 286 287 289 290 291 292 293 294 295 296 297 297 298 298 299 299 299 300 300 300 300 300 300 300 300 300 300 300 300 300 300 300
267 269 272 274 278 280 281 283 285 287 288 289 291 293 294 295 295 296 297 297 298 299 299 300 301 302 302 303 303 303 303 303 302 302 302 302 302 302 303 303 303 303 304
271 275 277 278 280 283 286 288 290 291 293 294 295 296 297 297 298 298 299 299 301 301 302 303 304 305 305 306 306 306 305 305 305 305 306 306 306 306 306 306 307 307 307
277 283 285 285 285 288 290 292 293 294 295 296 298 299 299 300 301 301 301 302 303 304 304 305 306 306 306 307 308 308 309 308 308 308 309 310 310 310 310 310 311 311 312
287 289 291 291 292 293 295 296 296 297 297 299 300 301 302 302 302 302 303 304 305 306 306 307 308 308 308 309 310 311 312 312 312 313 313 313 313 314 314 314 314 314 314
292 294 295 296 296 297 298 298 299 300 301 302 303 303 304 304 305 305 306 307 308 308 309 309 309 309 309 310 311 312 314 314 315 316 317 317 317 317 317 317 317 317 317
296 297 297 298 298 299 301 302 302 303 304 304 304 304 305 306 307 308 309 309 310 311 311 310 309 309 310 310 311 313 314 316 317 318 319 320 320 320 320 320 321 321 322